Regional Weather Roundup
Issued by NWS Albany, NY

Home | Current Version | Previous Version | Graphics & Text | Print | Product List | Glossary On
Versions: 1 2 3 4 5 6 7 8 9 10 11 12 13 14 15 16 17 18 19 20 21 22 23 24 25 26 27 28 29 30 31 32 33 34 35 36 37 38 39 40 41 42 43 44 45 46 47 48 49 50
000
ASUS41 KALY 200510
RWRALY

NEW YORK STATE HOURLY WEATHER ROUNDUP
NATIONAL WEATHER SERVICE ALBANY NY
100 AM EDT WED SEP 20 2017

NOTE: "FAIR" INDICATES FEW OR NO CLOUDS BELOW 12,000 FEET WITH NO
SIGNIFICANT WEATHER AND/OR NO OBSTRUCTIONS TO VISIBILITY.

NYZ032-033-038>043-046>054-057>066-NYZ062>081-082-084-200600-
EAST


CITY           SKY/WX    TMP DP  RH WIND       PRES   REMARKS
ALBANY         MOCLDY    64  60  87 N6        29.99F
GLENS FALLS    PTCLDY    62  59  90 N6        30.01F
POUGHKEEPSIE   CLOUDY    70  62  76 N8        29.91F
NEWBURGH       MOCLDY    70  64  83 N6        29.94S
MONTGOMERY     CLOUDY    70  62  76 NE14      29.92F
WHITE PLAINS   MOCLDY    70  63  78 N10       29.87S
ISLIP          LGT RAIN  68  67  96 N15       29.82S
NEW YORK CITY  CLOUDY    72  65  78 N14       29.84F
CENTRAL PARK   CLOUDY    73  63  70 NE12G20   29.89S
$$

NYZ005>009-017-018-044>046-055-056-200600-
CENTRAL


CITY           SKY/WX    TMP DP  RH WIND       PRES   REMARKS
FULTON         CLEAR     61  60  97 CALM      30.00S
SYRACUSE       PTCLDY    62  61  96 SE3       29.99S
ROME           CLEAR     61  60  97 CALM      30.01F
ELMIRA         FOG       57  57 100 CALM      30.00S VSB 1
BINGHAMTON     CLEAR     61  57  87 N5        30.01F
MONTICELLO     CLOUDY    64  59  83 CALM      29.99S
$$

NYZ026>034-041>043-087-200600-
NORTH


CITY           SKY/WX    TMP DP  RH WIND       PRES   REMARKS
WATERTOWN      CLEAR     62  62 100 CALM      30.00S
FORT DRUM      NOT AVBL
OGDENSBURG     FAIR      63  62  96 CALM      30.02R FOG
MASSENA        PTCLDY    61  61 100 CALM      30.02F FOG
SARANAC LAKE   FOG       50  50 100 CALM      30.05F VSB 1/4
PLATTSBURGH    CLEAR     59  57  93 CALM      30.03F
$$

NYZ001>004-010>016-019>021-085-200600-
WEST


CITY           SKY/WX    TMP DP  RH WIND       PRES   REMARKS
NIAGARA FALLS  CLEAR     66  61  84 CALM      29.99S
BUFFALO        MOCLDY    64  63  96 E3        29.99F
DUNKIRK        CLEAR     60  60 100 CALM      29.98S FOG
JAMESTOWN      CLEAR     64  61  90 CALM      30.03S
WELLSVILLE     CLEAR     60  58  92 CALM      30.06S
ROCHESTER      PTCLDY    63  61  93 CALM      30.01S
PENN YAN       CLEAR     59  56  89 SW3       30.01F
$$

             KEY
       WCI = WIND CHILL INDEX
       VSB = VISIBILITY
       HX  = HEAT INDEX
$$



USA.gov is the U.S. government's official web portal to all federal, state and local government web resources and services.